Location: Newark
(47.4000°N, 7.5833°E)
Time: 10:30:49
(UTC+00:00)

N. Korean satellite - Pass Details

Date: 02 February 2020
Orbit: 456 x 505 km, 97.2° (Epoch: 19 February)

Event Time Altitude Azimuth Distance (km) Brightness Sun altitude
Rises 05:24:27 0° 12° (NNE) 2,567 10.3 -15.5°
Reaches altitude 10° 05:26:30 10° 12° (NNE) 1,689 9.3 -15.2°
Maximum altitude 05:30:09 90° 334° (NNW) 501 6.5 -14.6°
Drops below altitude 10° 05:33:49 10° 194° (SSW) 1,699 9.3 -14.0°
Sets 05:35:54 0° 194° (SSW) 2,583 10.2 -13.6°
